TimeCST,TemperatureF,Dew PointF,Humidity,Sea Level PressureIn,VisibilityMPH,Wind Direction,Wind SpeedMPH,Gust SpeedMPH,PrecipitationIn,Events,Conditions,WindDirDegrees,DateUTC
12:56 AM,61.0,55.0,81,29.82,10.0,East,8.1,-,N/A,,Clear,100,2012-12-17 06:56:00
1:56 AM,61.0,55.0,81,29.81,10.0,SE,10.4,-,N/A,,Partly Cloudy,130,2012-12-17 07:56:00
2:56 AM,61.0,54.0,78,29.81,10.0,East,3.5,-,N/A,,Clear,100,2012-12-17 08:56:00
3:56 AM,61.0,54.0,78,29.80,10.0,Calm,Calm,-,N/A,,Mostly Cloudy,0,2012-12-17 09:56:00
4:56 AM,62.1,55.0,78,29.77,10.0,SE,10.4,-,N/A,Thunderstorm,Thunderstorm,140,2012-12-17 10:56:00
5:40 AM,62.6,55.4,77,29.82,9.0,SE,6.9,-,0.00,Rain,Light Rain,140,2012-12-17 11:40:00
5:56 AM,63.0,57.0,81,29.78,7.0,SE,10.4,-,0.00,Rain,Light Rain,140,2012-12-17 11:56:00
6:42 AM,64.4,59.0,83,29.82,10.0,SSE,9.2,-,0.02,,Overcast,160,2012-12-17 12:42:00
6:56 AM,66.0,60.1,81,29.78,7.0,Variable,4.6,-,0.02,,Overcast,0,2012-12-17 12:56:00
7:30 AM,64.4,60.8,88,29.82,7.0,ESE,3.5,-,N/A,,Overcast,120,2012-12-17 13:30:00
7:56 AM,66.9,64.0,90,29.76,6.0,South,5.8,-,N/A,,Overcast,170,2012-12-17 13:56:00
8:31 AM,71.6,68.0,88,29.81,5.0,SSW,13.8,-,N/A,Thunderstorm,Overcast,210,2012-12-17 14:31:00
8:46 AM,71.6,68.0,88,29.81,4.0,SW,16.1,21.9,0.00,Rain-Thunderstorm,Light Thunderstorms and Rain,220,2012-12-17 14:46:00
8:56 AM,69.1,64.9,87,29.79,4.0,Variable,4.6,-,0.00,Thunderstorm,Overcast,0,2012-12-17 14:56:00
9:13 AM,64.4,60.8,88,29.84,7.0,NNW,17.3,29.9,0.00,Rain-Thunderstorm,Light Thunderstorms and Rain,330,2012-12-17 15:13:00
9:17 AM,62.6,59.0,88,29.86,3.0,NNW,16.1,29.9,0.01,Rain-Thunderstorm,Light Thunderstorms and Rain,330,2012-12-17 15:17:00
9:21 AM,62.6,59.0,88,29.86,2.0,NNW,12.7,24.2,0.10,Rain-Thunderstorm,Thunderstorms and Rain,340,2012-12-17 15:21:00
9:35 AM,60.8,57.2,88,29.87,1.0,North,9.2,16.1,0.35,Rain-Thunderstorm,Heavy Thunderstorms and Rain,350,2012-12-17 15:35:00
9:44 AM,62.6,59.0,88,29.86,0.8,West,10.4,19.6,0.58,Rain-Thunderstorm,Heavy Thunderstorms and Rain,270,2012-12-17 15:44:00
9:56 AM,64.0,60.1,87,29.82,3.0,SW,9.2,17.3,0.68,Rain-Thunderstorm,Light Thunderstorms and Rain,230,2012-12-17 15:56:00
10:27 AM,64.4,60.8,88,29.82,6.0,SW,8.1,18.4,0.05,Rain-Thunderstorm,Light Thunderstorms and Rain,230,2012-12-17 16:27:00
10:49 AM,64.4,60.8,88,29.82,6.0,SW,10.4,18.4,0.08,Rain,Light Rain,230,2012-12-17 16:49:00
10:56 AM,64.0,60.1,87,29.79,6.0,WSW,9.2,-,0.08,Rain,Light Rain,240,2012-12-17 16:56:00
11:35 AM,64.4,60.8,88,29.82,10.0,SSW,9.2,-,0.01,,Overcast,210,2012-12-17 17:35:00
11:56 AM,64.9,61.0,87,29.78,10.0,WSW,4.6,-,0.01,,Overcast,240,2012-12-17 17:56:00
12:39 PM,66.2,62.6,88,29.79,7.0,SSW,5.8,-,0.00,Rain,Light Rain,210,2012-12-17 18:39:00
12:56 PM,66.9,63.0,87,29.75,10.0,SW,3.5,-,0.00,,Overcast,230,2012-12-17 18:56:00
1:56 PM,66.9,63.0,87,29.72,6.0,SSW,6.9,-,N/A,,Overcast,200,2012-12-17 19:56:00
2:56 PM,66.0,64.0,93,29.73,7.0,Variable,4.6,-,N/A,,Overcast,0,2012-12-17 20:56:00
3:17 PM,68.0,62.6,83,29.77,7.0,SW,4.6,-,N/A,,Overcast,220,2012-12-17 21:17:00
3:56 PM,69.1,62.1,78,29.74,7.0,WSW,6.9,-,N/A,,Overcast,240,2012-12-17 21:56:00
6:56 PM,64.9,60.1,84,29.77,7.0,WSW,6.9,-,0.00,Rain,Light Rain,250,2012-12-18 00:56:00
7:26 PM,64.4,60.8,88,29.82,7.0,WSW,5.8,-,0.00,,Overcast,240,2012-12-18 01:26:00
7:56 PM,64.0,59.0,84,29.78,7.0,WSW,8.1,-,0.00,,Overcast,250,2012-12-18 01:56:00
8:56 PM,63.0,57.0,81,29.80,6.0,West,10.4,-,N/A,,Scattered Clouds,270,2012-12-18 02:56:00
9:56 PM,61.0,55.9,83,29.82,5.0,West,6.9,-,N/A,,Partly Cloudy,260,2012-12-18 03:56:00
10:56 PM,60.1,55.0,83,29.81,7.0,WSW,6.9,-,N/A,,Partly Cloudy,240,2012-12-18 04:56:00
11:56 PM,57.9,53.1,84,29.82,5.0,West,6.9,-,N/A,,Haze,260,2012-12-18 05:56:00